Location: Helsinki
(60.1699°N, 24.9384°E)
Time: 19:42:57
(UTC+02:00)

Transit 4A - Pass Details

Date: 29 October 2020
Orbit: 862 x 982 km, 66.8° (Epoch: 30 November)

Event Time Altitude Azimuth Distance (km) Brightness Sun altitude
Rises 22:51:10 0° 309° (NW) 3,695 11.7 -41.8°
Reaches altitude 10° 22:53:45 10° 308° (NW) 2,747 10.9 -41.9°
Enters shadow 22:56:00 23° 305° (NW) 1,953 9.9 -42.0°
Maximum altitude 23:00:10 73° 225° (SW) 1,027 - -42.2°
Drops below altitude 10° 23:06:31 10° 143° (SE) 2,711 - -42.5°
Sets 23:09:03 0° 141° (SE) 3,643 - -42.6°
